#timestamp,LO_Frequency,Hit,StdDev 
1674198015.5,286046999.1,P
1674198035.3,286046996.6,P
1674198055.2,286046998.7,N
1674198075.0,286046997.6,N
1674198075.9,286046997.6,N
1674198095.7,286046995.3,Y
1674198115.6,286047001.2,P
1674198135.4,286046999.6,N
1674198155.2,286046999.1,N
1674198175.1,286046998.7,N
1674198176.0,286046998.7,N
1674198195.8,286046996.5,Y
1674198215.6,286046999.3,P
1674198235.5,286046999.5,P
1674198255.3,286046998.4,P
1674198275.1,286046996.8,Y
1674198295.9,286046999.2,P
1674198315.7,286046996.5,P
1674198335.5,286046997.7,N
1674198355.4,286046996.8,N
1674198375.2,286046997.4,N
1674198395.0,286046997.9,N
1674198395.9,286046997.9,N
1674198415.8,286046995.6,Y
1674198435.6,286046996.7,P
1674198485.5,286046997.7,E
1674198495.4,286046996.6,N
1674198515.2,286047000.9,P
1674198535.1,286047000.7,N
1674198536.0,286047000.7,N
1674198555.8,286046998.7,N
1674198575.6,286046999.3,N
1674198595.5,286047000.7,N
1674198615.3,286046996.9,N
1674198635.1,286046997.8,N
1674198655.9,286046996.8,N
1674198675.7,286046997.9,N
1674198695.5,286046997.2,N
1674198715.4,286046998.0,N
1674198735.2,286046996.7,N
1674198755.0,286046996.2,N
1674198755.9,286046996.2,N
1674198775.8,286046995.8,N
1674198795.6,286046995.9,N
1674198815.4,286046994.3,Y
1674198835.3,286046994.9,P
1674198855.1,286046997.2,N
1674198856.0,286046997.2,N
1674198875.8,286046997.6,N
1674198895.7,286046996.7,Y
1674198915.5,286047000.2,P
1674198935.3,286047000.0,N
1674198955.2,286046999.9,N
1674198975.9,286047000.1,N
1674198995.7,286047000.4,N
1674199015.6,286047000.5,N
1674199035.4,286047002.1,N
1674199055.2,286046998.1,N
1674199075.1,286046998.7,N
1674199076.0,286046998.7,N
1674199095.8,286046996.6,N
1674199115.6,286046996.7,N
1674199135.5,286046996.9,N
1674199155.3,286046999.4,N
1674199175.1,286046996.7,N
1674199195.9,286046996.6,N
1674199215.7,286046995.6,N
1674199235.5,286046996.2,N
1674199255.4,286046997.9,N
1674199275.2,286046997.7,N
1674199295.0,286046995.8,N
1674199295.9,286046995.8,N
1674199315.8,286046995.9,N
1674199335.6,286046997.8,N
1674199355.4,286046996.2,N
1674199375.3,286046993.7,Y
1674199395.1,286046995.0,P
1674199396.0,286046995.0,P
1674199415.8,286046995.0,P
1674199435.7,286046995.4,Y
1674199455.5,286047001.0,P
1674199475.3,286046999.0,N
1674199495.2,286046997.3,N
1674199515.9,286046999.5,N
1674199535.7,286046998.8,N
1674199555.6,286046998.9,N
1674199575.4,286046998.3,N
1674199595.2,286047001.1,N
1674199615.1,286047001.0,N
1674199616.0,286047001.0,N
1674199635.8,286046998.2,N
1674199655.6,286047000.7,N
1674199675.5,286047000.7,N
1674199695.3,286047000.7,N
1674199715.1,286047000.3,N
1674199735.9,286047000.4,N
1674199755.7,286046998.2,N
1674199775.5,286046998.1,N
1674199795.4,286047000.1,N
1674199815.2,286047002.8,N
1674199835.0,286047002.0,N
1674199835.9,286047002.0,N
1674199855.8,286047001.5,N
1674199875.6,286047001.5,N
1674199895.4,286047001.8,N
1674199915.3,286047001.6,N
1674199935.1,286047001.4,N
1674199936.0,286047001.4,N
1674199955.8,286047001.6,N
1674199975.7,286047003.5,N
1674199995.5,286047004.0,N
1674200015.3,286047003.9,N
1674200035.2,286047003.0,N
1674200055.9,286047004.2,N
1674200075.7,286047003.7,N
1674200095.6,286047003.6,N
1674200115.4,286047004.4,N
1674200135.2,286047004.3,N
1674200155.1,286047002.9,N
1674200156.0,286047002.9,N
1674200175.8,286047006.0,Y
1674200195.6,286047002.0,P
1674200215.5,286047002.0,P
1674200235.3,286047004.0,P
1674200255.1,286047001.3,N
1674200275.9,286047001.3,N
1674200295.7,286047002.1,N
1674200315.5,286047001.4,N
1674200335.4,286047003.6,Y
1674200355.2,286047001.7,P
1674200375.0,286047003.1,P
1674200375.9,286047003.1,P
1674200395.8,286047005.6,Y
1674200415.6,286047004.3,P
1674200435.4,286047001.3,N
1674200455.3,286047003.9,P
1674200475.1,286047004.2,Y
1674200495.8,286047001.1,P
1674200515.7,286047000.7,N
1674200535.5,286047000.1,N
1674200555.3,286047000.0,N
1674200575.2,286047002.3,N
1674200595.9,286047001.4,N
1674200615.7,286047004.1,Y
1674200635.6,286047001.9,P
1674200655.4,286047001.5,P
1674200675.2,286047003.4,P
1674200695.1,286047003.3,Y
1674200696.0,286047003.3,P
1674200715.8,286047002.1,P
1674200735.6,286047003.9,P
1674200755.5,286047003.4,Y
1674200775.3,286047002.8,P
1674200795.1,286046999.8,P
1674200815.9,286046999.9,N
1674200835.7,286047000.1,N
1674200855.5,286047000.0,N
1674200875.4,286046999.9,N
1674200895.2,286047002.8,N
1674200915.0,286047002.5,N
1674200915.9,286047002.5,N
1674200935.8,286047002.6,N
1674200955.6,286047002.0,N
1674200975.4,286047001.5,N
1674200995.3,286047003.9,Y
1674201015.1,286047002.7,P
1674201035.8,286047002.3,P
1674201055.7,286047002.3,P
1674201075.5,286047001.6,Y
1674201095.3,286047000.2,P
1674201115.2,286047000.8,N
1674201135.0,286047000.9,N
1674201135.9,286047000.9,N
1674201155.7,286046999.9,N
1674201175.6,286047002.1,N
1674201195.4,286047001.3,N
1674201215.2,286047003.4,Y
1674201235.1,286047003.4,P
1674201236.0,286047003.4,N
1674201255.8,286047005.3,P
1674201275.6,286047005.2,Y
1674201295.5,286047004.4,P
1674201315.3,286047003.0,P
1674201335.1,286047003.2,P
1674201355.9,286047003.2,Y
1674201375.7,286047000.4,P
1674201395.5,286047001.0,N
1674201415.4,286047002.4,N
1674201435.2,286047002.8,N
1674201455.0,286047002.4,N
1674201455.9,286047002.4,N
1674201475.8,286047002.7,N
1674201495.6,286047001.6,N
1674201515.4,286047004.1,Y
1674201535.3,286047001.6,P
1674201555.1,286047003.7,P
1674201575.8,286047001.3,N
1674201595.7,286047002.2,N
